Weather History for Curitiba, Brazil

Change the Weather History Date:

Tuesday, February 11, 2014

  Actual Average Record
Temperature  
Mean Temperature 74 °F -  
Max Temperature 86 °F 78 °F 87 °F (2000)
Min Temperature 62 °F 61 °F 59 °F (1998)
Cooling Degree Days 9    
Growing Degree Days 24 (Base 50)    
Moisture  
Dew Point 65 °F    
Average Humidity 78    
Maximum Humidity 100    
Minimum Humidity 33    
Precipitation  
Precipitation 0.00 in - - ()
Sea Level Pressure  
Sea Level Pressure 30.09 in    
Wind  
Wind Speed 6 mph ()    
Max Wind Speed 13 mph    
Max Gust Speed -    
Visibility 6.6 miles    
Events      
Averages and records for this station are not official NWS values.
T = Trace of Precipitation, MM = Missing Value Source: Averaged Metar Reports

Daily Weather History Graph

Daily Weather History Graph

Search for Another Location

Airport:

Trip Planner

Search our weather history database for the weather conditions in past years. The results will help you decide how hot, cold, wet, or windy it might be!

Date:

Astronomy

Feb. 11, 2014 Rise Set
Actual Time 6:59 AM BRST 8:01 PM BRST
Civil Twilight 6:35 AM BRST 8:25 PM BRST
Nautical Twilight 6:07 AM BRST 8:54 PM BRST
Astronomical Twilight 5:38 AM BRST 9:23 PM BRST
Moon 5:40 PM BRST (2/11) 4:03 AM BRST (2/11)
Length of Visible Light 13h 49m
Length of Day
13h 01m
Waxing Gibbous, 90% of the Moon is Illuminated
Feb 11
Waxing Gibbous
Feb 14
Full
Feb 22
Last Quarter
Mar 1
New
Mar 8
First Quarter

Hourly Weather History & Observations

Time (BRST) Temp. Heat Index Dew Point Humidity Pressure Visibility Wind Dir Wind Speed Gust Speed Precip Events Conditions
12:00 AM 68.0 °F - 66.2 °F 94% 30.12 in 6.2 mi East 3.5 mph - N/A   Partly Cloudy
1:00 AM 68.0 °F - 66.2 °F 94% 30.12 in 6.2 mi ESE 5.8 mph - N/A   Partly Cloudy
2:00 AM 66.2 °F - 66.2 °F 100% 30.12 in 6.2 mi SE 5.8 mph - N/A   Partly Cloudy
3:00 AM 64.4 °F - 64.4 °F 100% 30.09 in 6.2 mi SE 5.8 mph - N/A   Partly Cloudy
4:00 AM 62 °F - 62 °F 100%  in 12 mi SSE 5.8 mph - -   Scattered Clouds
4:00 AM 62.6 °F - 62.6 °F 100% 30.09 in 6.2 mi SSE 5.8 mph - N/A   Partly Cloudy
5:00 AM 62.6 °F - 62.6 °F 100% 30.09 in 6.2 mi SE 4.6 mph - N/A   Partly Cloudy
6:00 AM 62.6 °F - 62.6 °F 100% 30.09 in 5.0 mi SE 3.5 mph - N/A   Partly Cloudy
7:00 AM 62.6 °F - 62.6 °F 100% 30.12 in 5.0 mi SE 4.6 mph - N/A   Partly Cloudy
8:00 AM 64.4 °F - 64.4 °F 100% 30.12 in 3.7 mi ESE 5.8 mph - N/A   Partly Cloudy
8:45 AM 69.8 °F - 66.2 °F 88% 30.12 in 5.0 mi ESE 5.8 mph - N/A   Mostly Cloudy
9:00 AM 69.8 °F - 66.2 °F 88% 30.12 in 6.2 mi SE 4.6 mph - N/A   Mostly Cloudy
10:00 AM 75.2 °F - 66.2 °F 73% 30.15 in 6.2 mi ENE 3.5 mph - N/A   Mostly Cloudy
10:20 AM 77.0 °F - 64.4 °F 65% 30.15 in 6.2 mi East 8.1 mph - N/A   Scattered Clouds
11:00 AM 77.0 °F - 64.4 °F 65% 30.15 in 6.2 mi ENE 9.2 mph - N/A   Scattered Clouds
12:00 PM 80.6 °F 82.3 °F 64.4 °F 58% 30.12 in 6.2 mi East 12.7 mph - N/A   Scattered Clouds
1:00 PM 82.4 °F 83.4 °F 62.6 °F 51% 30.09 in 6.2 mi ENE 10.4 mph - N/A   Scattered Clouds
2:00 PM 80.6 °F 81.8 °F 62.6 °F 54% 30.09 in 6.2 mi East 8.1 mph - N/A   Scattered Clouds
3:00 PM 84.2 °F 85.6 °F 64.4 °F 51% 30.06 in 6.2 mi East 8.1 mph - N/A   Scattered Clouds
4:00 PM 86 °F - 61 °F 33%  in 12 mi East 9.2 mph - -   Partly Cloudy
4:00 PM 86.0 °F 86.1 °F 60.8 °F 43% 30.04 in 6.2 mi East 9.2 mph - N/A   Scattered Clouds
5:00 PM 86.0 °F 86.6 °F 62.6 °F 45% 30.01 in 6.2 mi East 5.8 mph - N/A   Scattered Clouds
6:00 PM 82.4 °F 84.6 °F 66.2 °F 58% 30.01 in 6.2 mi ESE 12.7 mph - N/A   Partly Cloudy
7:00 PM 78.8 °F - 66.2 °F 65% 30.01 in 6.2 mi ESE 11.5 mph - N/A   Partly Cloudy
8:00 PM 73.4 °F - 68.0 °F 83% 30.01 in 6.2 mi ESE 9.2 mph - N/A   Partly Cloudy
9:00 PM 71.6 °F - 68.0 °F 88% 30.04 in 6.2 mi East 10.4 mph - N/A   Partly Cloudy
10:00 PM 71 °F - 67 °F 83%  in 12 mi ENE 6.9 mph - -  
10:00 PM 69.8 °F - 66.2 °F 88% 30.06 in - ENE 6.9 mph - N/A   Clear
11:00 PM 68.0 °F - 66.2 °F 94% 30.06 in - ESE 4.6 mph - N/A   Clear